Location: Corcelles
(46.1547°N, 4.7234°E)
Time: 21:01:03
(UTC+00:00)

H-2A R/B - Pass Details

Date: 14 July 2020
Orbit: 577 x 656 km, 98.5° (Epoch: 14 August)

Event Time Altitude Azimuth Distance (km) Brightness Sun altitude
Rises 02:04:10 0° 133° (SE) 2,925 5.4 -15.4°
Reaches altitude 10° 02:06:40 10° 120° (ESE) 2,009 4.7 -15.2°
Maximum altitude 02:10:13 25° 65° (ENE) 1,264 4.3 -14.9°
Drops below altitude 10° 02:13:44 10° 10° (N) 1,981 5.7 -14.5°
Sets 02:16:11 0° 358° (N) 2,876 6.4 -14.3°
